Weather Roundup
Issued by NWS

Home | Current Version | Previous Version | Text Only | Print | Product List | Glossary On
Versions: 1 2 3 4 5 6 7 8 9 10 11 12 13 14 15 16 17 18 19 20 21 22 23 24 25 26 27 28 29 30 31 32 33 34 35 36 37 38 39 40 41 42 43 44 45 46 47 48 49 50
000
NZUS93 KARX 240259
HRRWXR

CURRENT HOURLY OBSERVATIONS ACROSS
MUCH OF THE UPPER MISSISSIPPI VALLEY
NATIONAL WEATHER SERVICE LA CROSSE WI
1000 PM CDT FRI JUN 23 2017


...SOUTHEAST MINNESOTA...


CITY           SKY/WX    TMP DP  RH WIND       PRES   REMARKS
ROCHESTER      PTCLDY    60  53  77 W10       29.93R
ROCHESTER/MAYO FAIR      63  51  65 W12G21    29.92R
WINONA         MOCLDY    61  54  77 W5        29.89R
AUSTIN         CLEAR     61  50  67 W13G18    29.94R
ALBERT LEA     CLEAR     61  52  72 W7        29.96R
DODGE CENTER   CLEAR     61  52  72 W12       29.93R
PRESTON        CLEAR     60  53  77 NW10      29.92R
OWATONNA       CLEAR     61  52  72 W9        29.94R
FARIBAULT      PTCLDY    63  52  67 W9        29.94R
$$

...ELSEWHERE IN MINNESOTA...


CITY           SKY/WX    TMP DP  RH WIND       PRES   REMARKS
MINNEAPOLIS    MOCLDY    65  49  56 NW13G22   29.91R
INTNL FALLS    CLOUDY    54  50  86 W12G20    29.85R
DULUTH         CLOUDY    55  54  96 NW13G20   29.84R
RED WING       CLOUDY    64  52  63 N3        29.88R
REDWOOD FALLS  PTCLDY    57  47  69 W7        29.98R
MANKATO        CLEAR     61  50  67 NW12      29.97R
WORTHINGTON    PTCLDY    55  47  74 W8        30.04R
FAIRMONT       PTCLDY    60  49  66 W12       30.00R
$$

...SOUTHWEST WISCONSIN...


CITY           SKY/WX    TMP DP  RH WIND       PRES   REMARKS
LA CROSSE      CLOUDY    69  56  62 NW14      29.86R
PRAIRIE DU CHI NOT AVBL
BOSCOBEL       CLEAR     67  55  65 W10       29.87R
LONE ROCK      NOT AVBL
PLATTEVILLE    CLEAR     64  58  81 W8        29.87R
FORT MC COY    PTCLDY    62  54  75 W6        29.85R
MAUSTON-NEW LI CLEAR     64  55  73 W7        29.82R
VIROQUA        MOCLDY    63  57  81 W7        29.87R
WIS DELLS      PTCLDY    61  53  74 W3        29.84R
$$

...ELSEWHERE IN WISCONSIN...


CITY           SKY/WX    TMP DP  RH WIND       PRES   REMARKS
MILWAUKEE      PTCLDY    70  52  52 W10       29.79R
MADISON        PTCLDY    64  54  69 VRB5      29.83R
GREEN BAY      CLEAR     63  55  75 W7        29.75R
EAU CLAIRE     NOT AVBL
BLACK RVR FLS  FAIR      63  50  63 W8        29.83R
MEDFORD        CLEAR     59  50  70 W6        29.81R
WAUSAU         MOCLDY    59  53  80 W6        29.78R
WIS RAPIDS     CLEAR     61  52  72 W7        29.83R
MARSHFIELD     MOCLDY    62  51  67 W9        29.81R
RICE LAKE      CLOUDY    61  52  71 W9        29.86R
$$

...NORTHEAST IOWA...


CITY           SKY/WX    TMP DP  RH WIND       PRES   REMARKS
WATERLOO       CLOUDY    64  55  72 W6        29.94R
DUBUQUE        CLEAR     64  54  69 W10       29.90R
DECORAH        CLOUDY    63  54  72 NW9G17    29.90R
MASON CITY     CLEAR     61  50  67 NW12      29.98R
CHARLES CITY   CLEAR     63  55  77 W10       29.95R
OELWEIN        CLEAR     63  55  77 W10       29.94R
$$

...ELSEWHERE IN IOWA...


CITY           SKY/WX    TMP DP  RH WIND       PRES   REMARKS
DES MOINES     MOCLDY    68  50  52 NW7       30.00R
IOWA CITY      CLEAR     68  55  63 W8        29.94R
FORT DODGE     CLEAR     63  46  55 NW8       30.03R
MARSHALLTOWN   CLOUDY    65  54  67 W12       29.97R
CEDAR RAPIDS   CLEAR     60  57  89 W7        29.92R
$$

...NORTHERN ILLINOIS...


CITY           SKY/WX    TMP DP  RH WIND       PRES   REMARKS
CHICAGO-OHARE  PTCLDY    71  55  56 NW14      29.81R
CHICAGO-MIDWAY PTCLDY    73  56  54 NW14      29.80R
MOLINE         CLEAR     69  54  58 NW12      29.90R
ROCKFORD       CLEAR     67  53  61 NW9       29.86R
PEORIA         CLEAR     68  55  63 VRB3      29.91R
$$

NOTE: "FAIR" INDICATES FEW OR NO CLOUDS BELOW 12,000 FEET WITH NO
SIGNIFICANT WEATHER AND/OR OBSTRUCTIONS TO VISIBILITY. WIND
SPEEDS ARE IN MILES-PER-HOUR.




USA.gov is the U.S. government's official web portal to all federal, state and local government web resources and services.